Orbital Elements at Epoch 2459000.5 (2020-May-31.0) TDB
Reference: JPL 17 (heliocentric ecliptic J2000)
Element | Value | Uncertainty (1-sigma) | Units |
e | .1745807629837381 | 5.0619e-08 | |
a | 2.658143425262066 | 1.3737e-08 | au |
q | 2.194082717959607 | 1.3973e-07 | au |
i | 12.47631953968288 | 5.0717e-06 | deg |
node | 311.0977003165798 | 2.0451e-05 | deg |
peri | 35.37232559921329 | 2.4316e-05 | deg |
M | 314.8484109389598 | 1.2431e-05 | deg |
tp | 2459199.034771883251 (2020-Dec-15.53477188) | 5.5197e-05 | TDB |
period | 1582.945791372857 4.33 | 1.2271e-05 3.36e-08 | d yr |
n | .2274240861323363 | 1.763e-09 | deg/d |
Q | 3.122204132564525 | 1.6136e-08 | au |
|
| | Orbit Determination Parameters
Additional Information
|